Time,TemperatureF,DewpointF,PressureIn,WindDirection,WindDirectionDegrees,WindSpeedMPH,WindSpeedGustMPH,Humidity,HourlyPrecipIn,Conditions,Clouds,dailyrainin,SoftwareType,DateUTC
2013-09-01 00:02:00,65.5,55.2,29.77,WNW,294,0.0,0.0,69,0.00,,,0.00,WUHU216DAVISVP2,2013-09-01 05:02:00,
2013-09-01 00:07:00,65.5,55.2,29.78,WNW,292,0.0,0.0,69,0.00,,,0.00,WUHU216DAVISVP2,2013-09-01 05:07:00,
2013-09-01 00:12:00,65.5,55.2,29.78,WNW,293,0.0,0.0,69,0.00,,,0.00,WUHU216DAVISVP2,2013-09-01 05:12:00,
2013-09-01 00:17:00,65.3,55.0,29.78,WNW,293,0.0,0.0,69,0.00,,,0.00,WUHU216DAVISVP2,2013-09-01 05:17:00,
2013-09-01 00:22:00,65.2,54.9,29.78,WNW,292,0.0,0.0,69,0.00,,,0.00,WUHU216DAVISVP2,2013-09-01 05:22:00,
2013-09-01 00:27:00,65.2,54.9,29.78,WNW,291,0.0,0.0,69,0.00,,,0.00,WUHU216DAVISVP2,2013-09-01 05:27:00,
2013-09-01 00:32:00,65.2,55.3,29.78,WNW,295,0.0,0.0,70,0.00,,,0.00,WUHU216DAVISVP2,2013-09-01 05:32:00,
2013-09-01 00:37:00,65.0,54.7,29.78,NW,307,0.0,0.0,69,0.00,,,0.00,WUHU216DAVISVP2,2013-09-01 05:37:00,
2013-09-01 00:42:00,65.0,54.7,29.78,NW,304,0.0,0.0,69,0.00,,,0.00,WUHU216DAVISVP2,2013-09-01 05:42:00,
2013-09-01 00:47:00,64.9,54.6,29.78,WNW,299,0.0,0.0,69,0.00,,,0.00,WUHU216DAVISVP2,2013-09-01 05:47:00,
2013-09-01 00:52:00,64.7,54.5,29.78,WNW,298,0.0,0.0,69,0.00,,,0.00,WUHU216DAVISVP2,2013-09-01 05:52:00,
2013-09-01 00:57:00,64.6,54.4,29.78,WNW,298,0.0,0.0,69,0.00,,,0.00,WUHU216DAVISVP2,2013-09-01 05:57:00,
2013-09-01 01:02:00,64.5,54.3,29.78,WNW,296,0.0,0.0,69,0.00,,,0.00,WUHU216DAVISVP2,2013-09-01 06:02:00,
2013-09-01 01:07:00,64.4,54.2,29.78,WNW,295,0.0,0.0,69,0.00,,,0.00,WUHU216DAVISVP2,2013-09-01 06:07:00,
2013-09-01 01:12:00,64.3,54.5,29.78,WNW,293,0.0,0.0,70,0.00,,,0.00,WUHU216DAVISVP2,2013-09-01 06:12:00,
2013-09-01 01:17:00,64.2,54.4,29.78,NW,315,0.0,0.0,70,0.00,,,0.00,WUHU216DAVISVP2,2013-09-01 06:17:00,
2013-09-01 01:22:00,64.2,54.4,29.78,NW,310,0.0,0.0,70,0.00,,,0.00,WUHU216DAVISVP2,2013-09-01 06:22:00,
2013-09-01 01:27:00,64.1,54.6,29.78,NW,310,0.0,0.0,71,0.00,,,0.00,WUHU216DAVISVP2,2013-09-01 06:27:00,
2013-09-01 01:32:00,63.9,54.5,29.78,WNW,303,0.0,0.0,71,0.00,,,0.00,WUHU216DAVISVP2,2013-09-01 06:32:00,
2013-09-01 01:37:00,63.8,54.4,29.78,NW,304,0.0,0.0,71,0.00,,,0.00,WUHU216DAVISVP2,2013-09-01 06:37:00,
2013-09-01 01:42:00,63.6,54.2,29.78,NW,304,0.0,0.0,71,0.00,,,0.00,WUHU216DAVISVP2,2013-09-01 06:42:00,
2013-09-01 01:47:00,63.5,54.1,29.78,NW,304,0.0,0.0,71,0.00,,,0.00,WUHU216DAVISVP2,2013-09-01 06:47:00,
2013-09-01 01:52:00,63.5,54.4,29.78,WNW,302,0.0,0.0,72,0.00,,,0.00,WUHU216DAVISVP2,2013-09-01 06:52:00,
2013-09-01 01:57:00,63.4,54.4,29.78,WNW,296,0.0,0.0,72,0.00,,,0.00,WUHU216DAVISVP2,2013-09-01 06:57:00,
2013-09-01 02:02:00,63.3,54.6,29.78,WNW,296,0.0,0.0,73,0.00,,,0.00,WUHU216DAVISVP2,2013-09-01 07:02:00,
2013-09-01 02:07:00,63.1,54.4,29.78,WNW,290,0.0,0.0,73,0.00,,,0.00,WUHU216DAVISVP2,2013-09-01 07:07:00,
2013-09-01 02:12:00,63.0,54.3,29.78,WNW,290,0.0,0.0,73,0.00,,,0.00,WUHU216DAVISVP2,2013-09-01 07:12:00,
2013-09-01 02:17:00,62.9,54.2,29.78,WNW,291,0.0,0.0,73,0.00,,,0.00,WUHU216DAVISVP2,2013-09-01 07:17:00,
2013-09-01 02:22:00,62.8,54.5,29.78,WNW,291,0.0,0.0,74,0.00,,,0.00,WUHU216DAVISVP2,2013-09-01 07:22:00,
2013-09-01 02:27:00,62.6,54.3,29.79,WNW,288,0.0,0.0,74,0.00,,,0.00,WUHU216DAVISVP2,2013-09-01 07:27:00,
2013-09-01 02:32:00,62.6,54.3,29.79,WNW,284,0.0,0.0,74,0.00,,,0.00,WUHU216DAVISVP2,2013-09-01 07:32:00,
2013-09-01 02:37:00,62.5,54.6,29.79,WNW,302,0.0,0.0,75,0.00,,,0.00,WUHU216DAVISVP2,2013-09-01 07:37:00,
2013-09-01 02:42:00,62.4,54.5,29.79,WNW,294,0.0,0.0,75,0.00,,,0.00,WUHU216DAVISVP2,2013-09-01 07:42:00,
2013-09-01 02:47:00,62.3,54.4,29.79,WNW,284,0.0,0.0,75,0.00,,,0.00,WUHU216DAVISVP2,2013-09-01 07:47:00,
2013-09-01 02:52:00,62.2,54.6,29.79,WNW,288,0.0,0.0,76,0.00,,,0.00,WUHU216DAVISVP2,2013-09-01 07:52:00,
2013-09-01 02:57:00,62.1,54.5,29.79,West,280,0.0,0.0,76,0.00,,,0.00,WUHU216DAVISVP2,2013-09-01 07:57:00,
2013-09-01 03:02:00,62.1,54.9,29.80,West,276,0.0,0.0,77,0.00,,,0.00,WUHU216DAVISVP2,2013-09-01 08:02:00,
2013-09-01 03:07:00,62.0,54.8,29.80,West,279,0.0,0.0,77,0.00,,,0.00,WUHU216DAVISVP2,2013-09-01 08:07:00,
2013-09-01 03:12:00,62.0,54.8,29.80,WNW,284,0.0,0.0,77,0.00,,,0.00,WUHU216DAVISVP2,2013-09-01 08:12:00,
2013-09-01 03:17:00,61.8,54.9,29.80,WNW,282,0.0,0.0,78,0.00,,,0.00,WUHU216DAVISVP2,2013-09-01 08:17:00,
2013-09-01 03:22:00,61.7,54.9,29.80,WNW,282,0.0,0.0,78,0.00,,,0.00,WUHU216DAVISVP2,2013-09-01 08:22:00,
2013-09-01 03:27:00,61.6,55.1,29.80,West,273,0.0,0.0,79,0.00,,,0.00,WUHU216DAVISVP2,2013-09-01 08:27:00,
2013-09-01 03:32:00,61.4,54.9,29.80,NW,311,0.0,0.0,79,0.00,,,0.00,WUHU216DAVISVP2,2013-09-01 08:32:00,
2013-09-01 03:37:00,61.4,55.2,29.80,WNW,289,0.0,0.0,80,0.00,,,0.00,WUHU216DAVISVP2,2013-09-01 08:37:00,
2013-09-01 03:42:00,61.3,55.1,29.81,NW,311,0.0,0.0,80,0.00,,,0.00,WUHU216DAVISVP2,2013-09-01 08:42:00,
2013-09-01 03:47:00,61.3,55.1,29.81,NW,304,0.0,0.0,80,0.00,,,0.00,WUHU216DAVISVP2,2013-09-01 08:47:00,
2013-09-01 03:52:00,61.3,55.5,29.81,WNW,296,0.0,0.0,81,0.00,,,0.00,WUHU216DAVISVP2,2013-09-01 08:52:00,
2013-09-01 03:57:00,61.2,55.4,29.81,WNW,294,0.0,0.0,81,0.00,,,0.00,WUHU216DAVISVP2,2013-09-01 08:57:00,
2013-09-01 04:02:00,61.2,55.4,29.81,WNW,294,0.0,0.0,81,0.00,,,0.00,WUHU216DAVISVP2,2013-09-01 09:02:00,
2013-09-01 04:07:00,61.3,55.8,29.82,WNW,288,0.0,0.0,82,0.00,,,0.00,WUHU216DAVISVP2,2013-09-01 09:07:00,
2013-09-01 04:12:00,61.4,55.9,29.82,WNW,289,0.0,0.0,82,0.00,,,0.00,WUHU216DAVISVP2,2013-09-01 09:12:00,
2013-09-01 04:17:00,61.6,56.1,29.82,WNW,284,0.0,2.0,82,0.00,,,0.00,WUHU216DAVISVP2,2013-09-01 09:17:00,
2013-09-01 04:22:00,61.8,56.3,29.82,West,266,0.0,2.0,82,0.00,,,0.00,WUHU216DAVISVP2,2013-09-01 09:22:00,
2013-09-01 04:27:00,61.9,56.4,29.82,WSW,256,0.0,1.0,82,0.00,,,0.00,WUHU216DAVISVP2,2013-09-01 09:27:00,
2013-09-01 04:32:00,61.9,56.4,29.82,WNW,296,0.0,1.0,82,0.00,,,0.00,WUHU216DAVISVP2,2013-09-01 09:32:00,
2013-09-01 04:37:00,62.0,56.5,29.82,WNW,290,0.0,1.0,82,0.00,,,0.00,WUHU216DAVISVP2,2013-09-01 09:37:00,
2013-09-01 04:42:00,62.1,56.6,29.82,WNW,290,0.0,0.0,82,0.00,,,0.00,WUHU216DAVISVP2,2013-09-01 09:42:00,
2013-09-01 04:47:00,62.2,56.7,29.82,West,277,0.0,0.0,82,0.00,,,0.00,WUHU216DAVISVP2,2013-09-01 09:47:00,
2013-09-01 04:52:00,62.4,56.9,29.82,NW,321,0.0,0.0,82,0.00,,,0.00,WUHU216DAVISVP2,2013-09-01 09:52:00,
2013-09-01 04:57:00,62.6,56.7,29.82,WNW,302,0.0,0.0,81,0.00,,,0.00,WUHU216DAVISVP2,2013-09-01 09:57:00,
2013-09-01 05:02:00,62.7,56.8,29.82,WNW,302,0.0,0.0,81,0.00,,,0.00,WUHU216DAVISVP2,2013-09-01 10:02:00,
2013-09-01 05:07:00,62.7,56.8,29.82,West,274,0.0,0.0,81,0.00,,,0.00,WUHU216DAVISVP2,2013-09-01 10:07:00,
2013-09-01 05:12:00,62.7,56.8,29.83,West,276,0.0,0.0,81,0.00,,,0.00,WUHU216DAVISVP2,2013-09-01 10:12:00,
2013-09-01 05:17:00,62.7,56.8,29.83,West,276,0.0,0.0,81,0.00,,,0.00,WUHU216DAVISVP2,2013-09-01 10:17:00,
2013-09-01 05:22:00,62.7,56.8,29.83,NW,307,0.0,0.0,81,0.00,,,0.00,WUHU216DAVISVP2,2013-09-01 10:22:00,
2013-09-01 05:27:00,62.7,56.8,29.83,WNW,290,0.0,0.0,81,0.00,,,0.00,WUHU216DAVISVP2,2013-09-01 10:27:00,
2013-09-01 05:32:00,62.7,56.8,29.83,North,351,0.0,0.0,81,0.00,,,0.00,WUHU216DAVISVP2,2013-09-01 10:32:00,
2013-09-01 05:37:00,62.6,56.4,29.83,WNW,298,0.0,1.0,80,0.00,,,0.00,WUHU216DAVISVP2,2013-09-01 10:37:00,
2013-09-01 05:42:00,62.5,56.3,29.83,WNW,295,0.0,1.0,80,0.00,,,0.00,WUHU216DAVISVP2,2013-09-01 10:42:00,
2013-09-01 05:47:00,62.4,56.2,29.84,West,276,0.0,1.0,80,0.00,,,0.00,WUHU216DAVISVP2,2013-09-01 10:47:00,
2013-09-01 05:52:00,62.3,56.1,29.84,West,279,0.0,1.0,80,0.00,,,0.00,WUHU216DAVISVP2,2013-09-01 10:52:00,
2013-09-01 05:57:00,62.2,56.0,29.84,WNW,302,0.0,0.0,80,0.00,,,0.00,WUHU216DAVISVP2,2013-09-01 10:57:00,
2013-09-01 06:02:00,62.2,56.3,29.84,NW,307,0.0,0.0,81,0.00,,,0.00,WUHU216DAVISVP2,2013-09-01 11:02:00,
2013-09-01 06:07:00,62.1,56.3,29.84,NW,313,0.0,0.0,81,0.00,,,0.00,WUHU216DAVISVP2,2013-09-01 11:07:00,
2013-09-01 06:12:00,62.1,55.9,29.84,West,275,0.0,1.0,80,0.00,,,0.00,WUHU216DAVISVP2,2013-09-01 11:12:00,
2013-09-01 06:17:00,62.1,55.9,29.85,West,277,0.0,1.0,80,0.00,,,0.00,WUHU216DAVISVP2,2013-09-01 11:17:00,
2013-09-01 06:22:00,62.1,55.9,29.85,WNW,284,0.0,1.0,80,0.00,,,0.00,WUHU216DAVISVP2,2013-09-01 11:22:00,
2013-09-01 06:27:00,62.1,55.6,29.85,West,266,0.0,1.0,79,0.00,,,0.00,WUHU216DAVISVP2,2013-09-01 11:27:00,
2013-09-01 06:32:00,61.7,55.5,29.85,WNW,300,0.0,11.0,80,0.00,,,0.00,WUHU216DAVISVP2,2013-09-01 11:32:00,
2013-09-01 06:37:00,61.2,55.0,29.85,WNW,300,0.0,11.0,80,0.00,,,0.00,WUHU216DAVISVP2,2013-09-01 11:37:00,
2013-09-01 06:42:00,60.9,54.7,29.85,WNW,300,0.0,0.0,80,0.00,,,0.00,WUHU216DAVISVP2,2013-09-01 11:42:00,
2013-09-01 06:47:00,60.6,54.1,29.85,WNW,299,0.0,0.0,79,0.00,,,0.00,WUHU216DAVISVP2,2013-09-01 11:47:00,
2013-09-01 06:52:00,60.3,53.8,29.85,West,281,0.0,1.0,79,0.00,,,0.00,WUHU216DAVISVP2,2013-09-01 11:52:00,
2013-09-01 06:57:00,60.0,53.5,29.86,WNW,296,0.0,1.0,79,0.00,,,0.00,WUHU216DAVISVP2,2013-09-01 11:57:00,
2013-09-01 07:02:00,59.6,53.1,29.86,WNW,282,0.0,0.0,79,0.00,,,0.00,WUHU216DAVISVP2,2013-09-01 12:02:00,
2013-09-01 07:07:00,59.3,52.9,29.86,WNW,295,0.0,0.0,79,0.00,,,0.00,WUHU216DAVISVP2,2013-09-01 12:07:00,
2013-09-01 07:12:00,59.1,53.0,29.87,WNW,298,0.0,0.0,80,0.00,,,0.00,WUHU216DAVISVP2,2013-09-01 12:12:00,
2013-09-01 07:17:00,59.0,53.2,29.87,WNW,296,0.0,0.0,81,0.00,,,0.00,WUHU216DAVISVP2,2013-09-01 12:17:00,
2013-09-01 07:22:00,59.0,53.2,29.87,WNW,296,0.0,0.0,81,0.00,,,0.00,WUHU216DAVISVP2,2013-09-01 12:22:00,
2013-09-01 07:27:00,59.0,53.2,29.87,WNW,292,0.0,0.0,81,0.00,,,0.00,WUHU216DAVISVP2,2013-09-01 12:27:00,
2013-09-01 07:32:00,58.9,53.1,29.87,WNW,291,0.0,0.0,81,0.00,,,0.00,WUHU216DAVISVP2,2013-09-01 12:32:00,
2013-09-01 07:37:00,58.8,53.0,29.87,SW,236,0.0,0.0,81,0.00,,,0.00,WUHU216DAVISVP2,2013-09-01 12:37:00,
2013-09-01 07:42:00,58.9,53.1,29.87,WNW,297,0.0,0.0,81,0.00,,,0.00,WUHU216DAVISVP2,2013-09-01 12:42:00,
2013-09-01 07:47:00,59.0,53.2,29.88,WNW,293,0.0,0.0,81,0.00,,,0.00,WUHU216DAVISVP2,2013-09-01 12:47:00,
2013-09-01 07:52:00,59.0,52.9,29.88,NW,326,0.0,0.0,80,0.00,,,0.00,WUHU216DAVISVP2,2013-09-01 12:52:00,
2013-09-01 07:57:00,59.0,52.9,29.88,NW,318,0.0,5.0,80,0.00,,,0.00,WUHU216DAVISVP2,2013-09-01 12:57:00,
2013-09-01 08:02:00,59.0,52.9,29.88,NW,323,0.0,5.0,80,0.00,,,0.00,WUHU216DAVISVP2,2013-09-01 13:02:00,
2013-09-01 08:07:00,59.0,52.9,29.89,NNW,338,0.0,1.0,80,0.00,,,0.00,WUHU216DAVISVP2,2013-09-01 13:07:00,
2013-09-01 08:12:00,59.0,52.6,29.88,WNW,297,0.0,1.0,79,0.00,,,0.00,WUHU216DAVISVP2,2013-09-01 13:12:00,
2013-09-01 08:17:00,59.1,52.3,29.89,WNW,302,0.0,2.0,78,0.00,,,0.00,WUHU216DAVISVP2,2013-09-01 13:17:00,
2013-09-01 08:22:00,59.2,51.7,29.89,NNW,338,0.0,2.0,76,0.00,,,0.00,WUHU216DAVISVP2,2013-09-01 13:22:00,
2013-09-01 08:27:00,59.4,51.9,29.90,West,279,0.0,1.0,76,0.00,,,0.00,WUHU216DAVISVP2,2013-09-01 13:27:00,
2013-09-01 08:32:00,59.5,51.7,29.90,NNE,13,0.0,1.0,75,0.00,,,0.00,WUHU216DAVISVP2,2013-09-01 13:32:00,
2013-09-01 08:37:00,59.5,51.7,29.91,NW,315,0.0,9.0,75,0.00,,,0.00,WUHU216DAVISVP2,2013-09-01 13:37:00,
2013-09-01 08:42:00,59.4,51.6,29.91,North,360,0.0,9.0,75,0.00,,,0.00,WUHU216DAVISVP2,2013-09-01 13:42:00,
2013-09-01 08:47:00,59.0,50.8,29.91,North,360,0.0,2.0,74,0.00,,,0.00,WUHU216DAVISVP2,2013-09-01 13:47:00,
2013-09-01 08:52:00,59.3,51.1,29.91,North,360,0.0,2.0,74,0.00,,,0.00,WUHU216DAVISVP2,2013-09-01 13:52:00,
2013-09-01 08:57:00,59.3,51.1,29.91,SW,229,0.0,12.0,74,0.00,,,0.00,WUHU216DAVISVP2,2013-09-01 13:57:00,
2013-09-01 09:02:00,59.1,50.9,29.91,WSW,252,0.0,12.0,74,0.00,,,0.00,WUHU216DAVISVP2,2013-09-01 14:02:00,
2013-09-01 09:07:00,59.0,50.5,29.92,NW,313,0.0,1.0,73,0.00,,,0.00,WUHU216DAVISVP2,2013-09-01 14:07:00,
2013-09-01 09:12:00,59.0,50.8,29.92,WNW,298,0.0,9.0,74,0.00,,,0.00,WUHU216DAVISVP2,2013-09-01 14:12:00,
2013-09-01 09:17:00,59.0,50.8,29.92,NW,321,0.0,9.0,74,0.00,,,0.00,WUHU216DAVISVP2,2013-09-01 14:17:00,
2013-09-01 09:22:00,59.0,51.2,29.92,NNW,344,0.0,5.0,75,0.00,,,0.00,WUHU216DAVISVP2,2013-09-01 14:22:00,
2013-09-01 09:27:00,59.0,50.8,29.93,NW,305,0.0,10.0,74,0.00,,,0.00,WUHU216DAVISVP2,2013-09-01 14:27:00,
2013-09-01 09:32:00,59.0,51.2,29.93,West,273,0.0,10.0,75,0.00,,,0.00,WUHU216DAVISVP2,2013-09-01 14:32:00,
2013-09-01 09:37:00,59.0,50.8,29.93,WNW,302,0.0,1.0,74,0.00,,,0.00,WUHU216DAVISVP2,2013-09-01 14:37:00,
2013-09-01 09:42:00,59.0,50.5,29.93,NE,52,0.0,1.0,73,0.00,,,0.00,WUHU216DAVISVP2,2013-09-01 14:42:00,
2013-09-01 09:47:00,59.0,50.5,29.93,West,263,0.0,1.0,73,0.00,,,0.00,WUHU216DAVISVP2,2013-09-01 14:47:00,
2013-09-01 09:52:00,59.0,50.5,29.93,NW,311,0.0,4.0,73,0.00,,,0.00,WUHU216DAVISVP2,2013-09-01 14:52:00,
2013-09-01 09:57:00,59.0,50.5,29.93,NW,318,0.0,4.0,73,0.00,,,0.00,WUHU216DAVISVP2,2013-09-01 14:57:00,
2013-09-01 10:02:00,59.0,50.5,29.94,NNE,32,0.0,3.0,73,0.00,,,0.00,WUHU216DAVISVP2,2013-09-01 15:02:00,
2013-09-01 10:07:00,59.0,50.5,29.94,WNW,294,0.0,6.0,73,0.00,,,0.00,WUHU216DAVISVP2,2013-09-01 15:07:00,
2013-09-01 10:12:00,59.0,50.5,29.94,NNW,333,0.0,6.0,73,0.00,,,0.00,WUHU216DAVISVP2,2013-09-01 15:12:00,
2013-09-01 10:17:00,59.0,50.5,29.94,WNW,288,0.0,1.0,73,0.00,,,0.00,WUHU216DAVISVP2,2013-09-01 15:17:00,
2013-09-01 10:22:00,59.0,50.5,29.95,NNE,17,0.0,1.0,73,0.00,,,0.00,WUHU216DAVISVP2,2013-09-01 15:22:00,
2013-09-01 10:27:00,59.0,50.5,29.95,West,267,0.0,1.0,73,0.00,,,0.00,WUHU216DAVISVP2,2013-09-01 15:27:00,
2013-09-01 10:32:00,59.0,50.8,29.95,West,268,0.0,7.0,74,0.00,,,0.00,WUHU216DAVISVP2,2013-09-01 15:32:00,
2013-09-01 10:37:00,59.0,50.8,29.95,NW,307,0.0,7.0,74,0.00,,,0.00,WUHU216DAVISVP2,2013-09-01 15:37:00,
2013-09-01 10:42:00,59.0,50.8,29.95,WSW,246,0.0,1.0,74,0.00,,,0.00,WUHU216DAVISVP2,2013-09-01 15:42:00,
2013-09-01 10:47:00,59.0,50.5,29.95,WNW,289,0.0,13.0,73,0.00,,,0.00,WUHU216DAVISVP2,2013-09-01 15:47:00,
2013-09-01 10:52:00,59.2,50.7,29.95,NW,309,1.0,13.0,73,0.00,,,0.00,WUHU216DAVISVP2,2013-09-01 15:52:00,
2013-09-01 10:57:00,59.4,50.9,29.96,NW,317,0.0,11.0,73,0.00,,,0.00,WUHU216DAVISVP2,2013-09-01 15:57:00,
2013-09-01 11:02:00,59.6,50.7,29.96,NNW,342,0.0,1.0,72,0.00,,,0.00,WUHU216DAVISVP2,2013-09-01 16:02:00,
2013-09-01 11:07:00,60.0,50.7,29.96,NW,315,0.0,1.0,71,0.00,,,0.00,WUHU216DAVISVP2,2013-09-01 16:07:00,
2013-09-01 11:12:00,60.5,51.6,29.96,NW,309,0.0,1.0,72,0.00,,,0.00,WUHU216DAVISVP2,2013-09-01 16:12:00,
2013-09-01 11:17:00,61.0,51.3,29.96,NNW,331,0.0,1.0,70,0.00,,,0.00,WUHU216DAVISVP2,2013-09-01 16:17:00,
2013-09-01 11:22:00,61.1,51.4,29.96,WNW,292,0.0,1.0,70,0.00,,,0.00,WUHU216DAVISVP2,2013-09-01 16:22:00,
2013-09-01 11:27:00,61.1,51.4,29.97,NW,304,0.0,9.0,70,0.00,,,0.00,WUHU216DAVISVP2,2013-09-01 16:27:00,
2013-09-01 11:32:00,60.9,51.2,29.96,West,261,0.0,9.0,70,0.00,,,0.00,WUHU216DAVISVP2,2013-09-01 16:32:00,
2013-09-01 11:37:00,60.8,51.5,29.96,WNW,294,0.0,1.0,71,0.00,,,0.00,WUHU216DAVISVP2,2013-09-01 16:37:00,
2013-09-01 11:42:00,61.0,51.3,29.97,WNW,291,0.0,13.0,70,0.00,,,0.00,WUHU216DAVISVP2,2013-09-01 16:42:00,
2013-09-01 11:47:00,61.0,51.3,29.97,NW,315,0.0,13.0,70,0.00,,,0.00,WUHU216DAVISVP2,2013-09-01 16:47:00,
2013-09-01 11:52:00,60.9,51.6,29.96,WNW,300,0.0,1.0,71,0.00,,,0.00,WUHU216DAVISVP2,2013-09-01 16:52:00,
2013-09-01 11:57:00,61.0,51.3,29.97,WNW,300,0.0,6.0,70,0.00,,,0.00,WUHU216DAVISVP2,2013-09-01 16:57:00,
2013-09-01 12:02:00,61.2,51.5,29.97,NNW,342,0.0,6.0,70,0.00,,,0.00,WUHU216DAVISVP2,2013-09-01 17:02:00,
2013-09-01 12:07:00,61.1,51.4,29.97,WNW,295,0.0,9.0,70,0.00,,,0.00,WUHU216DAVISVP2,2013-09-01 17:07:00,
2013-09-01 12:12:00,61.2,51.5,29.97,NW,313,0.0,9.0,70,0.00,,,0.00,WUHU216DAVISVP2,2013-09-01 17:12:00,
2013-09-01 12:17:00,61.3,51.6,29.97,NNE,16,0.0,1.0,70,0.00,,,0.00,WUHU216DAVISVP2,2013-09-01 17:17:00,
2013-09-01 12:22:00,61.4,51.7,29.97,North,350,0.0,1.0,70,0.00,,,0.00,WUHU216DAVISVP2,2013-09-01 17:22:00,
2013-09-01 12:27:00,61.6,51.9,29.97,West,278,0.0,2.0,70,0.00,,,0.00,WUHU216DAVISVP2,2013-09-01 17:27:00,
2013-09-01 12:32:00,61.9,52.2,29.97,NNE,13,0.0,2.0,70,0.00,,,0.00,WUHU216DAVISVP2,2013-09-01 17:32:00,
2013-09-01 12:37:00,61.9,51.4,29.97,NW,314,0.0,1.0,68,0.00,,,0.00,WUHU216DAVISVP2,2013-09-01 17:37:00,
2013-09-01 12:42:00,62.0,51.9,29.97,WNW,299,0.0,1.0,69,0.00,,,0.00,WUHU216DAVISVP2,2013-09-01 17:42:00,
2013-09-01 12:47:00,61.9,51.8,29.97,WNW,302,0.0,5.0,69,0.00,,,0.00,WUHU216DAVISVP2,2013-09-01 17:47:00,
2013-09-01 12:52:00,62.1,52.0,29.97,West,277,0.0,5.0,69,0.00,,,0.00,WUHU216DAVISVP2,2013-09-01 17:52:00,
2013-09-01 12:57:00,62.1,52.0,29.98,NW,316,0.0,2.0,69,0.00,,,0.00,WUHU216DAVISVP2,2013-09-01 17:57:00,
2013-09-01 13:02:00,62.2,52.1,29.98,West,261,0.0,1.0,69,0.00,,,0.00,WUHU216DAVISVP2,2013-09-01 18:02:00,
2013-09-01 13:06:00,62.0,51.9,29.98,NNW,336,0.0,1.0,69,0.00,,,0.00,WUHU216DAVISVP2,2013-09-01 18:06:00,
2013-09-01 13:12:00,61.9,51.8,29.98,West,278,0.0,1.0,69,0.00,,,0.00,WUHU216DAVISVP2,2013-09-01 18:12:00,
2013-09-01 13:17:00,62.0,51.9,29.98,West,271,0.0,1.0,69,0.00,,,0.00,WUHU216DAVISVP2,2013-09-01 18:17:00,
2013-09-01 13:21:00,62.2,52.1,29.98,NW,325,0.0,7.0,69,0.00,,,0.00,WUHU216DAVISVP2,2013-09-01 18:21:00,
2013-09-01 13:27:00,62.1,52.0,29.98,NW,304,0.0,7.0,69,0.00,,,0.00,WUHU216DAVISVP2,2013-09-01 18:27:00,
2013-09-01 13:32:00,62.2,52.1,29.98,WNW,298,0.0,3.0,69,0.00,,,0.00,WUHU216DAVISVP2,2013-09-01 18:32:00,
2013-09-01 13:37:00,62.7,52.1,29.98,WNW,292,0.0,1.0,68,0.00,,,0.00,WUHU216DAVISVP2,2013-09-01 18:37:00,
2013-09-01 13:41:00,62.8,52.2,29.98,West,265,0.0,1.0,68,0.00,,,0.00,WUHU216DAVISVP2,2013-09-01 18:41:00,
2013-09-01 13:47:00,62.3,52.1,29.98,NNE,21,0.0,2.0,69,0.00,,,0.00,WUHU216DAVISVP2,2013-09-01 18:47:00,
2013-09-01 13:52:00,62.0,51.9,29.99,West,276,0.0,2.0,69,0.00,,,0.00,WUHU216DAVISVP2,2013-09-01 18:52:00,
2013-09-01 13:57:00,62.2,52.1,29.99,WNW,288,0.0,1.0,69,0.00,,,0.00,WUHU216DAVISVP2,2013-09-01 18:57:00,
2013-09-01 14:02:00,62.2,51.7,29.99,NE,44,0.0,1.0,68,0.00,,,0.00,WUHU216DAVISVP2,2013-09-01 19:02:00,
2013-09-01 14:07:00,62.1,51.6,29.99,WSW,245,0.0,1.0,68,0.00,,,0.00,WUHU216DAVISVP2,2013-09-01 19:07:00,
2013-09-01 14:12:00,61.9,51.8,29.99,NW,313,0.0,1.0,69,0.00,,,0.00,WUHU216DAVISVP2,2013-09-01 19:12:00,
2013-09-01 14:17:00,62.1,51.6,29.99,NW,313,0.0,1.0,68,0.00,,,0.00,WUHU216DAVISVP2,2013-09-01 19:17:00,
2013-09-01 14:22:00,62.6,52.0,29.99,WNW,289,0.0,1.0,68,0.00,,,0.00,WUHU216DAVISVP2,2013-09-01 19:22:00,
2013-09-01 14:27:00,62.9,51.9,29.99,WNW,284,1.0,2.0,67,0.00,,,0.00,WUHU216DAVISVP2,2013-09-01 19:27:00,
2013-09-01 14:32:00,63.0,52.0,29.99,West,273,0.0,2.0,67,0.00,,,0.00,WUHU216DAVISVP2,2013-09-01 19:32:00,
2013-09-01 14:37:00,63.5,52.1,29.99,WNW,291,0.0,1.0,66,0.00,,,0.00,WUHU216DAVISVP2,2013-09-01 19:37:00,
2013-09-01 14:42:00,63.6,51.8,29.99,WNW,303,0.0,1.0,65,0.00,,,0.00,WUHU216DAVISVP2,2013-09-01 19:42:00,
2013-09-01 14:47:00,63.7,52.3,29.99,WNW,288,0.0,1.0,66,0.00,,,0.00,WUHU216DAVISVP2,2013-09-01 19:47:00,
2013-09-01 14:52:00,63.9,52.1,29.99,NNW,331,0.0,1.0,65,0.00,,,0.00,WUHU216DAVISVP2,2013-09-01 19:52:00,
2013-09-01 14:56:00,64.1,51.8,29.99,North,355,0.0,1.0,64,0.00,,,0.00,WUHU216DAVISVP2,2013-09-01 19:56:00,
2013-09-01 15:01:00,64.8,51.6,29.99,NNW,338,0.0,3.0,62,0.00,,,0.00,WUHU216DAVISVP2,2013-09-01 20:01:00,
2013-09-01 15:06:00,64.9,52.6,29.98,NNE,26,0.0,3.0,64,0.00,,,0.00,WUHU216DAVISVP2,2013-09-01 20:06:00,
2013-09-01 15:11:00,65.9,52.7,29.98,West,281,1.0,1.0,62,0.00,,,0.00,WUHU216DAVISVP2,2013-09-01 20:11:00,
2013-09-01 15:16:00,66.3,52.6,29.98,WNW,294,0.0,2.0,61,0.00,,,0.00,WUHU216DAVISVP2,2013-09-01 20:16:00,
2013-09-01 15:21:00,66.7,53.0,29.98,NNE,16,0.0,2.0,61,0.00,,,0.00,WUHU216DAVISVP2,2013-09-01 20:21:00,
2013-09-01 15:26:00,67.3,52.6,29.98,NNE,18,0.0,1.0,59,0.00,,,0.00,WUHU216DAVISVP2,2013-09-01 20:26:00,
2013-09-01 15:31:00,67.6,52.9,29.98,WNW,292,0.0,2.0,59,0.00,,,0.00,WUHU216DAVISVP2,2013-09-01 20:31:00,
2013-09-01 15:36:00,67.9,53.2,29.98,West,267,0.0,2.0,59,0.00,,,0.00,WUHU216DAVISVP2,2013-09-01 20:36:00,
2013-09-01 15:41:00,68.0,52.8,29.98,NNW,344,0.0,2.0,58,0.00,,,0.00,WUHU216DAVISVP2,2013-09-01 20:41:00,
2013-09-01 15:46:00,66.9,52.3,29.98,NNE,22,0.0,2.0,59,0.00,,,0.00,WUHU216DAVISVP2,2013-09-01 20:46:00,
2013-09-01 15:51:00,67.1,52.9,29.98,WNW,292,0.0,2.0,60,0.00,,,0.00,WUHU216DAVISVP2,2013-09-01 20:51:00,
2013-09-01 15:56:00,67.6,52.4,29.98,NNE,29,0.0,1.0,58,0.00,,,0.00,WUHU216DAVISVP2,2013-09-01 20:56:00,
2013-09-01 16:01:00,67.9,52.7,29.97,WSW,245,0.0,2.0,58,0.00,,,0.00,WUHU216DAVISVP2,2013-09-01 21:01:00,
2013-09-01 16:06:00,68.3,52.6,29.97,North,355,0.0,2.0,57,0.00,,,0.00,WUHU216DAVISVP2,2013-09-01 21:06:00,
2013-09-01 16:11:00,67.5,52.4,29.97,North,11,0.0,9.0,58,0.00,,,0.00,WUHU216DAVISVP2,2013-09-01 21:11:00,
2013-09-01 16:16:00,67.6,52.4,29.97,West,261,0.0,9.0,58,0.00,,,0.00,WUHU216DAVISVP2,2013-09-01 21:16:00,
2013-09-01 16:21:00,68.7,53.0,29.97,WNW,286,0.0,2.0,57,0.00,,,0.00,WUHU216DAVISVP2,2013-09-01 21:21:00,
2013-09-01 16:26:00,69.2,53.5,29.97,North,360,1.0,2.0,57,0.00,,,0.00,WUHU216DAVISVP2,2013-09-01 21:26:00,
2013-09-01 16:31:00,68.7,53.0,29.97,NNE,23,0.0,1.0,57,0.00,,,0.00,WUHU216DAVISVP2,2013-09-01 21:31:00,
2013-09-01 16:36:00,68.5,52.8,29.97,NNE,28,0.0,3.0,57,0.00,,,0.00,WUHU216DAVISVP2,2013-09-01 21:36:00,
2013-09-01 16:41:00,68.9,53.2,29.97,North,11,0.0,3.0,57,0.00,,,0.00,WUHU216DAVISVP2,2013-09-01 21:41:00,
2013-09-01 16:46:00,68.6,53.4,29.97,North,10,0.0,2.0,58,0.00,,,0.00,WUHU216DAVISVP2,2013-09-01 21:46:00,
2013-09-01 16:51:00,68.9,53.2,29.97,North,10,0.0,1.0,57,0.00,,,0.00,WUHU216DAVISVP2,2013-09-01 21:51:00,
2013-09-01 16:56:00,69.3,52.6,29.96,NNE,19,1.0,4.0,55,0.00,,,0.00,WUHU216DAVISVP2,2013-09-01 21:56:00,
2013-09-01 17:01:00,69.3,53.1,29.96,WNW,288,0.0,4.0,56,0.00,,,0.00,WUHU216DAVISVP2,2013-09-01 22:01:00,
2013-09-01 17:06:00,69.6,52.3,29.96,North,10,0.0,2.0,54,0.00,,,0.00,WUHU216DAVISVP2,2013-09-01 22:06:00,
2013-09-01 17:11:00,70.0,52.2,29.96,NNW,342,0.0,2.0,53,0.00,,,0.00,WUHU216DAVISVP2,2013-09-01 22:11:00,
2013-09-01 17:16:00,70.4,52.6,29.97,West,276,0.0,11.0,53,0.00,,,0.00,WUHU216DAVISVP2,2013-09-01 22:16:00,
2013-09-01 17:21:00,70.4,52.6,29.96,WNW,291,0.0,11.0,53,0.00,,,0.00,WUHU216DAVISVP2,2013-09-01 22:21:00,
2013-09-01 17:26:00,70.4,52.0,29.96,West,269,0.0,2.0,52,0.00,,,0.00,WUHU216DAVISVP2,2013-09-01 22:26:00,
2013-09-01 17:31:00,70.1,52.8,29.96,NNE,15,2.0,4.0,54,0.00,,,0.00,WUHU216DAVISVP2,2013-09-01 22:31:00,
2013-09-01 17:36:00,69.5,52.8,29.96,NNE,14,0.0,5.0,55,0.00,,,0.00,WUHU216DAVISVP2,2013-09-01 22:36:00,
2013-09-01 17:41:00,69.8,53.0,29.96,NW,320,0.0,5.0,55,0.00,,,0.00,WUHU216DAVISVP2,2013-09-01 22:41:00,
2013-09-01 17:46:00,70.1,52.8,29.96,NNE,29,0.0,2.0,54,0.00,,,0.00,WUHU216DAVISVP2,2013-09-01 22:46:00,
2013-09-01 17:51:00,70.2,52.4,29.96,West,281,0.0,2.0,53,0.00,,,0.00,WUHU216DAVISVP2,2013-09-01 22:51:00,
2013-09-01 17:56:00,70.4,52.0,29.96,North,355,0.0,2.0,52,0.00,,,0.00,WUHU216DAVISVP2,2013-09-01 22:56:00,
2013-09-01 18:01:00,70.3,52.5,29.96,NNE,25,0.0,4.0,53,0.00,,,0.00,WUHU216DAVISVP2,2013-09-01 23:01:00,
2013-09-01 18:06:00,70.1,51.7,29.96,NNE,25,0.0,4.0,52,0.00,,,0.00,WUHU216DAVISVP2,2013-09-01 23:06:00,
2013-09-01 18:11:00,69.7,51.9,29.96,NNE,17,1.0,9.0,53,0.00,,,0.00,WUHU216DAVISVP2,2013-09-01 23:11:00,
2013-09-01 18:16:00,69.5,52.2,29.96,NNE,29,0.0,9.0,54,0.00,,,0.00,WUHU216DAVISVP2,2013-09-01 23:16:00,
2013-09-01 18:21:00,69.6,51.8,29.96,NNE,32,0.0,7.0,53,0.00,,,0.00,WUHU216DAVISVP2,2013-09-01 23:21:00,
2013-09-01 18:26:00,69.7,51.4,29.96,NNE,30,0.0,9.0,52,0.00,,,0.00,WUHU216DAVISVP2,2013-09-01 23:26:00,
2013-09-01 18:31:00,69.4,51.6,29.96,NNE,18,0.0,9.0,53,0.00,,,0.00,WUHU216DAVISVP2,2013-09-01 23:31:00,
2013-09-01 18:36:00,69.2,52.0,29.97,NNE,23,0.0,4.0,54,0.00,,,0.00,WUHU216DAVISVP2,2013-09-01 23:36:00,
2013-09-01 18:41:00,69.0,51.3,29.97,NNE,19,1.0,2.0,53,0.00,,,0.00,WUHU216DAVISVP2,2013-09-01 23:41:00,
2013-09-01 18:46:00,68.8,51.6,29.97,NNE,28,0.0,3.0,54,0.00,,,0.00,WUHU216DAVISVP2,2013-09-01 23:46:00,
2013-09-01 18:51:00,68.8,51.1,29.97,NNE,33,0.0,3.0,53,0.00,,,0.00,WUHU216DAVISVP2,2013-09-01 23:51:00,
2013-09-01 18:56:00,68.7,51.5,29.97,ENE,61,1.0,3.0,54,0.00,,,0.00,WUHU216DAVISVP2,2013-09-01 23:56:00,
2013-09-01 19:01:00,68.5,51.3,29.97,NNE,29,0.0,3.0,54,0.00,,,0.00,WUHU216DAVISVP2,2013-09-02 00:01:00,
2013-09-01 19:06:00,68.2,51.0,29.97,North,9,0.0,1.0,54,0.00,,,0.00,WUHU216DAVISVP2,2013-09-02 00:06:00,
2013-09-01 19:11:00,67.9,51.3,29.97,NNE,17,0.0,0.0,55,0.00,,,0.00,WUHU216DAVISVP2,2013-09-02 00:11:00,
2013-09-01 19:16:00,67.8,50.7,29.97,NNE,21,0.0,0.0,54,0.00,,,0.00,WUHU216DAVISVP2,2013-09-02 00:16:00,
2013-09-01 19:21:00,67.6,51.0,29.97,North,11,0.0,2.0,55,0.00,,,0.00,WUHU216DAVISVP2,2013-09-02 00:21:00,
2013-09-01 19:26:00,67.5,50.9,29.97,WNW,300,0.0,2.0,55,0.00,,,0.00,WUHU216DAVISVP2,2013-09-02 00:26:00,
2013-09-01 19:31:00,67.3,50.7,29.97,NNE,21,0.0,0.0,55,0.00,,,0.00,WUHU216DAVISVP2,2013-09-02 00:31:00,
2013-09-01 19:36:00,67.1,51.0,29.98,NNE,27,0.0,0.0,56,0.00,,,0.00,WUHU216DAVISVP2,2013-09-02 00:36:00,
2013-09-01 19:41:00,66.9,51.3,29.98,NNE,27,0.0,0.0,57,0.00,,,0.00,WUHU216DAVISVP2,2013-09-02 00:41:00,
2013-09-01 19:46:00,66.6,51.0,29.98,NNE,32,0.0,0.0,57,0.00,,,0.00,WUHU216DAVISVP2,2013-09-02 00:46:00,
2013-09-01 19:51:00,66.3,51.2,29.98,NNE,26,0.0,0.0,58,0.00,,,0.00,WUHU216DAVISVP2,2013-09-02 00:51:00,
2013-09-01 19:56:00,66.0,51.4,29.98,NNE,26,0.0,0.0,59,0.00,,,0.00,WUHU216DAVISVP2,2013-09-02 00:56:00,
2013-09-01 20:01:00,65.7,51.6,29.98,NNE,26,0.0,0.0,60,0.00,,,0.00,WUHU216DAVISVP2,2013-09-02 01:01:00,
2013-09-01 20:06:00,65.3,51.2,29.98,NNE,26,0.0,0.0,60,0.00,,,0.00,WUHU216DAVISVP2,2013-09-02 01:06:00,
2013-09-01 20:11:00,64.9,51.3,29.98,NNE,25,0.0,0.0,61,0.00,,,0.00,WUHU216DAVISVP2,2013-09-02 01:11:00,
2013-09-01 20:16:00,64.6,51.0,29.98,NNE,25,0.0,0.0,61,0.00,,,0.00,WUHU216DAVISVP2,2013-09-02 01:16:00,
2013-09-01 20:21:00,64.3,50.7,29.98,NNE,26,0.0,0.0,61,0.00,,,0.00,WUHU216DAVISVP2,2013-09-02 01:21:00,
2013-09-01 20:26:00,64.0,50.4,29.99,NNE,25,0.0,0.0,61,0.00,,,0.00,WUHU216DAVISVP2,2013-09-02 01:26:00,
2013-09-01 20:31:00,63.7,50.6,29.99,NNE,28,0.0,0.0,62,0.00,,,0.00,WUHU216DAVISVP2,2013-09-02 01:31:00,
2013-09-01 20:36:00,63.4,50.3,29.99,NNE,28,0.0,0.0,62,0.00,,,0.00,WUHU216DAVISVP2,2013-09-02 01:36:00,
2013-09-01 20:41:00,63.1,50.5,29.99,NNE,28,0.0,0.0,63,0.00,,,0.00,WUHU216DAVISVP2,2013-09-02 01:41:00,
2013-09-01 20:46:00,62.8,50.6,29.99,NNE,28,0.0,0.0,64,0.00,,,0.00,WUHU216DAVISVP2,2013-09-02 01:46:00,
2013-09-01 20:51:00,62.5,50.3,30.00,NNE,28,0.0,0.0,64,0.00,,,0.00,WUHU216DAVISVP2,2013-09-02 01:51:00,
2013-09-01 20:56:00,62.3,50.5,30.00,NNE,28,0.0,0.0,65,0.00,,,0.00,WUHU216DAVISVP2,2013-09-02 01:56:00,
2013-09-01 21:01:00,62.1,50.3,30.00,NNE,28,0.0,0.0,65,0.00,,,0.00,WUHU216DAVISVP2,2013-09-02 02:01:00,
2013-09-01 21:06:00,62.0,50.3,30.00,NNE,28,0.0,0.0,65,0.00,,,0.00,WUHU216DAVISVP2,2013-09-02 02:06:00,
2013-09-01 21:11:00,61.8,50.1,30.00,NNE,28,0.0,0.0,65,0.00,,,0.00,WUHU216DAVISVP2,2013-09-02 02:11:00,
2013-09-01 21:16:00,61.6,49.9,30.00,NNE,28,0.0,0.0,65,0.00,,,0.00,WUHU216DAVISVP2,2013-09-02 02:16:00,
2013-09-01 21:21:00,61.5,49.8,30.00,NNE,28,0.0,0.0,65,0.00,,,0.00,WUHU216DAVISVP2,2013-09-02 02:21:00,
2013-09-01 21:26:00,61.4,49.7,30.00,NNE,28,0.0,0.0,65,0.00,,,0.00,WUHU216DAVISVP2,2013-09-02 02:26:00,
2013-09-01 21:31:00,61.3,49.6,30.00,NNE,28,0.0,0.0,65,0.00,,,0.00,WUHU216DAVISVP2,2013-09-02 02:31:00,
2013-09-01 21:36:00,61.1,49.4,30.00,NNE,28,0.0,0.0,65,0.00,,,0.00,WUHU216DAVISVP2,2013-09-02 02:36:00,
2013-09-01 21:41:00,60.9,49.2,30.00,NNE,28,0.0,0.0,65,0.00,,,0.00,WUHU216DAVISVP2,2013-09-02 02:41:00,
2013-09-01 21:46:00,60.7,49.0,30.00,NNE,28,0.0,0.0,65,0.00,,,0.00,WUHU216DAVISVP2,2013-09-02 02:46:00,
2013-09-01 21:51:00,60.5,48.8,30.00,NNE,28,0.0,0.0,65,0.00,,,0.00,WUHU216DAVISVP2,2013-09-02 02:51:00,
2013-09-01 21:56:00,60.3,49.0,30.00,NNE,28,0.0,0.0,66,0.00,,,0.00,WUHU216DAVISVP2,2013-09-02 02:56:00,
2013-09-01 22:01:00,60.1,48.8,30.00,NNE,28,0.0,0.0,66,0.00,,,0.00,WUHU216DAVISVP2,2013-09-02 03:01:00,
2013-09-01 22:06:00,59.8,48.6,30.00,NNE,28,0.0,0.0,66,0.00,,,0.00,WUHU216DAVISVP2,2013-09-02 03:06:00,
2013-09-01 22:11:00,59.5,48.7,30.00,NNE,28,0.0,0.0,67,0.00,,,0.00,WUHU216DAVISVP2,2013-09-02 03:11:00,
2013-09-01 22:16:00,59.1,48.3,30.00,NNE,28,0.0,0.0,67,0.00,,,0.00,WUHU216DAVISVP2,2013-09-02 03:16:00,
2013-09-01 22:21:00,59.0,48.6,30.00,NNE,28,0.0,0.0,68,0.00,,,0.00,WUHU216DAVISVP2,2013-09-02 03:21:00,
2013-09-01 22:26:00,59.0,48.6,30.01,NNE,28,0.0,0.0,68,0.00,,,0.00,WUHU216DAVISVP2,2013-09-02 03:26:00,
2013-09-01 22:31:00,59.0,48.6,30.01,NNE,28,0.0,0.0,68,0.00,,,0.00,WUHU216DAVISVP2,2013-09-02 03:31:00,
2013-09-01 22:36:00,59.0,48.6,30.01,NNE,28,0.0,0.0,68,0.00,,,0.00,WUHU216DAVISVP2,2013-09-02 03:36:00,
2013-09-01 22:41:00,59.0,48.6,30.01,NNE,28,0.0,0.0,68,0.00,,,0.00,WUHU216DAVISVP2,2013-09-02 03:41:00,
2013-09-01 22:46:00,59.0,48.6,30.01,North,10,0.0,0.0,68,0.00,,,0.00,WUHU216DAVISVP2,2013-09-02 03:46:00,
2013-09-01 22:51:00,58.7,48.3,30.02,North,11,0.0,0.0,68,0.00,,,0.00,WUHU216DAVISVP2,2013-09-02 03:51:00,
2013-09-01 22:56:00,58.5,48.1,30.02,North,11,0.0,0.0,68,0.00,,,0.00,WUHU216DAVISVP2,2013-09-02 03:56:00,
2013-09-01 23:01:00,58.2,47.8,30.02,North,11,0.0,0.0,68,0.00,,,0.00,WUHU216DAVISVP2,2013-09-02 04:01:00,
2013-09-01 23:02:00,58.1,47.7,30.02,North,10,0.0,0.0,68,0.00,,,0.00,WUHU216DAVISVP2,2013-09-02 04:02:00,
2013-09-01 23:03:00,58.1,47.7,30.02,North,11,0.0,0.0,68,0.00,,,0.00,WUHU216DAVISVP2,2013-09-02 04:03:00,
2013-09-01 23:08:00,57.9,47.9,30.02,North,11,0.0,0.0,69,0.00,,,0.00,WUHU216DAVISVP2,2013-09-02 04:08:00,
2013-09-01 23:13:00,57.7,47.7,30.02,North,11,0.0,0.0,69,0.00,,,0.00,WUHU216DAVISVP2,2013-09-02 04:13:00,
2013-09-01 23:18:00,57.5,47.5,30.02,North,10,0.0,0.0,69,0.00,,,0.00,WUHU216DAVISVP2,2013-09-02 04:18:00,
2013-09-01 23:23:00,57.4,47.4,30.02,North,11,0.0,0.0,69,0.00,,,0.00,WUHU216DAVISVP2,2013-09-02 04:23:00,
2013-09-01 23:28:00,57.4,47.4,30.03,North,11,0.0,0.0,69,0.00,,,0.00,WUHU216DAVISVP2,2013-09-02 04:28:00,
2013-09-01 23:33:00,57.5,47.5,30.03,North,355,0.0,0.0,69,0.00,,,0.00,WUHU216DAVISVP2,2013-09-02 04:33:00,
2013-09-01 23:38:00,57.4,47.4,30.03,North,355,0.0,0.0,69,0.00,,,0.00,WUHU216DAVISVP2,2013-09-02 04:38:00,
2013-09-01 23:43:00,57.2,47.6,30.03,North,355,0.0,0.0,70,0.00,,,0.00,WUHU216DAVISVP2,2013-09-02 04:43:00,
2013-09-01 23:48:00,57.1,47.5,30.03,North,355,0.0,0.0,70,0.00,,,0.00,WUHU216DAVISVP2,2013-09-02 04:48:00,
2013-09-01 23:53:00,56.8,47.2,30.03,North,355,0.0,0.0,70,0.00,,,0.00,WUHU216DAVISVP2,2013-09-02 04:53:00,
2013-09-01 23:58:00,56.6,47.4,30.03,North,355,0.0,0.0,71,0.00,,,0.00,WUHU216DAVISVP2,2013-09-02 04:58:00,